Location: Knowlton
(51.2333°N, 1.2667°E)
Time: 03:39:29
(UTC+00:00)

Cosmos 468 Rocket - Pass Details

Date: 18 April 2021
Orbit: 745 x 779 km, 74.0° (Epoch: 06 May)

Event Time Altitude Azimuth Distance (km) Brightness Sun altitude
Rises 21:34:58 0° 336° (NNW) 3,200 8.6 -20.7°
Reaches altitude 10° 21:37:21 10° 340° (NNW) 2,272 7.5 -20.9°
Maximum altitude 21:42:28 65° 62° (ENE) 821 4.0 -21.4°
Enters shadow 21:43:44 48° 121° (ESE) 972 4.1 -21.5°
